CZ-6A DEB, 61415

Orbit data source: Space-Track

CZ-6A DEB, 61415 is space debris in LEO originally from a launch on Tue, 06 Aug 2024 UTC launched from the Taiyaun Space Center, China (TSC). Debris objects in space refer to the collection of defunct objects orbiting the Earth. Examples of debris include non-operational satellites, rocket bodies, and fragments generated from explosions, collisions, or faulty payload assembly.

Loading next visibility...
Identifier
61415, 2024-140YG
Orbit
LEO
Country
Flag of CNCN / PRC
Related business
Manufacturer
SAST
Mission
Spacecraft
Bus & Motor
Unknown
Mass
Unknown
Launch date (UTC)
2024-08-06 (2 years ago)
Launch vehicle
Unknown
Launch site
Taiyaun Space Center, China (TSC)
Object type
Payload
Rocket body
Debris
Shape & HBR
Unknown shape, 0.1 m
Radar Cross Section
Small (<0.1 m²)

Expand to show TLE details & history
Last TLE update: 18 hours ago

TLE from 18 hours ago
0 CZ-6A DEB
1 61415U 24140YG  26171.23029772  .00001262  00000-0  70771-3 0  9993
2 61415  88.9864 275.1024 0117353 252.0755 106.7605 14.06672064 91156
Epoch: 2026-06-20T05:31Z
TLE epoch observation values (Epoch: 2026-06-20T05:31:37.723Z)
Latitude
0.00003°
Longitude
-76.25268°
Altitude
899.263 km
Speed
7.389 km/s
True Right ascension
18h 20m 24s
True Declination
0° 00' 00"
Sunlit
Object was in full shadow at epoch
Visualization orbit readout
Latitude
Unknown
Longitude
Unknown
Altitude
Unknown
Speed
Unknown
Apparent Right ascension
Unknown
Apparent Declination
Unknown
Sunlit
N/A
Visualization observer readout
Local Sidereal Time
10:18:10
Azimuth
Unknown
Elevation
Unknown
Doppler factor
Unknown
Orbital elements
Apogee altitude
952.785 km
Perigee altitude
782.719 km
Semi-major axis
7,245.889 km
Eccentricity
0.01174
Inclination
88.9864°
RAAN
275.1024°
Arg. of periapsis
252.0755°
True anomaly
108.04261°
Mean anomaly
106.7605°
Eccentric anomaly
107.40211°
Mean motion
3.51889 °/min
Orbital period
102.3 mins
BSTAR
0.00070771
Loading maneuver chart data...
Computing Atmospheric mass density...
Loading historical data...
Loading historical data...
Loading historical data...
Loading historical data...
Loading historical data...
Loading historical data...
Loading historical data...

Documentation

Showing up to 5 results
|